Hamilton, OH

1:09 AM EDT on June 24, 2017 (GMT -0400)
Butler County Regional

Weather History for KHAO - July, 2013

Change the Weather History Date:

Monday, July 8, 2013

  Actual Average (KLUK) Record (KLUK)
Temperature  
Mean Temperature 76 °F -  
Max Temperature 87 °F 88 °F 101 °F (1988)
Min Temperature 66 °F 65 °F 52 °F (1984)
Cooling Degree Days 12    
Growing Degree Days 26 (Base 50)    
Moisture  
Dew Point 69 °F    
Average Humidity 79    
Maximum Humidity 97    
Minimum Humidity 61    
Precipitation  
Precipitation 0.00 in - - ()
Sea Level Pressure  
Sea Level Pressure 30.10 in    
Wind  
Wind Speed 2 mph (SW)    
Max Wind Speed 8 mph    
Max Gust Speed -    
Visibility 8 miles    
Events Rain    
Averages and records for this station are not official NWS values.
T = Trace of Precipitation, MM = Missing Value Source: NWS Daily Summary

Daily Weather History Graph

Daily Weather History Graph

Search for Another Location

Airport or City:

Trip Planner

Search our weather history database for the weather conditions in past years. The results will help you decide how hot, cold, wet, or windy it might be!

Date:

Astronomy

Jul. 08, 2013 Rise Set
Actual Time 6:19 AM EDT 9:07 PM EDT
Civil Twilight 5:47 AM EDT 9:38 PM EDT
Nautical Twilight 5:07 AM EDT 10:18 PM EDT
Astronomical Twilight 4:21 AM EDT 11:04 PM EDT
Moon 6:46 AM EDT (7/8) 9:09 PM EDT (7/8)
Length of Visible Light 15h 51m
Length of Day
14h 48m
New Moon, 0% of the Moon is Illuminated
Jul 8
New Moon
Jul 15
First Quarter
Jul 22
Full
Jul 29
Last Quarter
Aug 6
New

Hourly Weather History & Observations

Time (EDT) Temp. Heat Index Dew Point Humidity Pressure Visibility Wind Dir Wind Speed Gust Speed Precip Events Conditions
12:53 AM 66.9 °F - 66.0 °F 97% 30.10 in 7.0 mi Calm Calm - N/A   Clear
1:53 AM 66.9 °F - 64.9 °F 93% 30.10 in 6.0 mi Calm Calm - N/A   Clear
2:53 AM 66.9 °F - 64.9 °F 93% 30.10 in 6.0 mi Calm Calm - N/A   Scattered Clouds
3:53 AM 66.0 °F - 64.0 °F 93% 30.09 in 4.0 mi Calm Calm - 0.00 in   Clear
4:53 AM 66.0 °F - 64.0 °F 93% 30.10 in 4.0 mi Calm Calm - N/A   Clear
5:53 AM 66.9 °F - 64.9 °F 93% 30.11 in 4.0 mi Calm Calm - N/A   Clear
6:35 AM 66.2 °F - 64.4 °F 94% 30.12 in 2.5 mi Calm Calm - N/A   Clear
6:45 AM 66.2 °F - 64.4 °F 94% 30.12 in 3.0 mi Calm Calm - N/A   Clear
6:53 AM 66.9 °F - 64.9 °F 93% 30.12 in 4.0 mi Calm Calm - N/A   Clear
7:53 AM 71.1 °F - 69.1 °F 93% 30.12 in 4.0 mi Calm Calm - N/A   Clear
8:53 AM 75.0 °F - 69.1 °F 82% 30.14 in 8.0 mi Calm Calm - N/A   Partly Cloudy
9:53 AM 77.0 °F - 69.1 °F 76% 30.14 in 10.0 mi Variable 3.5 mph - N/A   Mostly Cloudy
10:53 AM 81.0 °F 84.9 °F 71.1 °F 72% 30.14 in 10.0 mi SSW 4.6 mph - N/A   Mostly Cloudy
11:53 AM 82.9 °F 88.0 °F 72.0 °F 69% 30.14 in 10.0 mi Variable 5.8 mph - N/A   Clear
12:53 PM 84.9 °F 90.7 °F 72.0 °F 65% 30.14 in 10.0 mi WSW 8.1 mph - N/A   Clear
1:53 PM 84.9 °F 90.7 °F 72.0 °F 65% 30.13 in 10.0 mi West 8.1 mph - N/A   Clear
2:53 PM 84.0 °F 89.0 °F 71.1 °F 65% 30.11 in 10.0 mi WSW 6.9 mph - N/A   Clear
3:53 PM 87.1 °F 93.6 °F 72.0 °F 61% 30.09 in 10.0 mi WSW 8.1 mph - N/A   Clear
4:53 PM 84.9 °F 90.7 °F 72.0 °F 65% 30.08 in 10.0 mi SW 5.8 mph - N/A   Clear
5:53 PM 86.0 °F 92.2 °F 72.0 °F 63% 30.05 in 10.0 mi Variable 5.8 mph - N/A   Clear
6:53 PM 84.0 °F 89.0 °F 71.1 °F 65% 30.05 in 10.0 mi WSW 5.8 mph - N/A   Clear
7:53 PM 84.9 °F 90.7 °F 72.0 °F 65% 30.06 in 10.0 mi SW 5.8 mph - N/A   Clear
8:53 PM 81.0 °F 85.2 °F 72.0 °F 74% 30.06 in 10.0 mi SW 4.6 mph - N/A   Clear
9:53 PM 80.1 °F 83.6 °F 71.1 °F 74% 30.07 in 9.0 mi SSW 4.6 mph - 0.00 in Rain Light Rain
10:53 PM 79.0 °F - 71.1 °F 77% 30.08 in 10.0 mi Calm Calm - 0.00 in Rain Light Rain
11:53 PM 77.0 °F - 71.1 °F 82% 30.08 in 10.0 mi SSW 3.5 mph - 0.00 in Rain Light Rain